| time (UTC) | temp F | wind direction | speed MPH | gust MPH | rain 1hr in | rain 24hr in | rain mn in | humidity % | barometer mb |
| 20260507051424 | 49 | 222 | 0.0 | 1.0 | 0.00 | 0.00 | 0.00 | 95 | 1015.6 |
| 20260507050921 | 49 | 130 | 0.0 | 1.0 | 0.00 | 0.00 | 0.00 | 94 | 1015.6 |
| 20260507050418 | 49 | 214 | 0.0 | 2.0 | 0.00 | 0.00 | 0.00 | 94 | 1015.8 |
| 20260507045915 | 49 | 229 | 1.0 | 2.0 | 0.00 | 0.00 | 0.00 | 94 | 1015.7 |
| 20260507045411 | 49 | 241 | 1.0 | 2.0 | 0.00 | 0.00 | 0.00 | 94 | 1015.6 |
| 20260507044908 | 49 | 119 | 0.0 | 0.0 | 0.00 | 0.00 | 0.00 | 94 | 1015.7 |
| 20260507044405 | 49 | 159 | 0.0 | 2.0 | 0.00 | 0.00 | 0.00 | 93 | 1016.0 |
| 20260507043901 | 49 | 131 | 0.0 | 0.0 | 0.00 | 0.00 | 0.00 | 93 | 1015.5 |
| 20260507043357 | 49 | 352 | 2.0 | 3.0 | 0.00 | 0.00 | 0.00 | 93 | 1015.6 |
| 20260507042854 | 49 | 18 | 2.0 | 3.0 | 0.00 | 0.00 | 0.00 | 93 | 1015.6 |
| 20260507042350 | 49 | 57 | 1.0 | 3.0 | 0.00 | 0.00 | 0.00 | 93 | 1015.4 |
| 20260507041846 | 49 | 5 | 0.0 | 3.0 | 0.00 | 0.00 | 0.00 | 92 | 1015.4 |
| 20260507041343 | 49 | 333 | 2.0 | 3.0 | 0.00 | 0.00 | 0.00 | 92 | 1015.6 |
| 20260507040841 | 50 | 296 | 0.0 | 2.0 | 0.00 | 0.00 | 0.00 | 91 | 1015.5 |
| 20260507040336 | 50 | 16 | 0.0 | 2.0 | 0.00 | 0.00 | 0.00 | 91 | 1015.4 |
| 20260507035833 | 50 | 342 | 2.0 | 5.0 | 0.00 | 0.61 | 0.61 | 90 | 1015.2 |
| 20260507035328 | 50 | 88 | 4.0 | 7.0 | 0.00 | 0.61 | 0.61 | 90 | 1015.4 |
| 20260507034826 | 50 | 88 | 6.0 | 8.0 | 0.00 | 0.61 | 0.61 | 90 | 1015.5 |
| 20260507034323 | 50 | 55 | 7.0 | 7.0 | 0.00 | 0.61 | 0.61 | 91 | 1015.3 |
| 20260507033821 | 50 | 44 | 3.0 | 5.0 | 0.02 | 0.61 | 0.61 | 92 | 1015.3 |
| 20260507033318 | 50 | 13 | 5.0 | 9.0 | 0.02 | 0.61 | 0.61 | 91 | 1015.3 |
| 20260507032815 | 50 | 42 | 4.0 | 5.0 | 0.00 | 0.61 | 0.61 | 92 | 1015.5 |
| 20260507032311 | 50 | 3 | 3.0 | 4.0 | 0.00 | 0.61 | 0.61 | 91 | 1015.0 |
| 20260507031808 | 50 | 67 | 5.0 | 6.0 | 0.00 | 0.61 | 0.61 | 92 | 1015.3 |
| 20260507031305 | 50 | 41 | 5.0 | 10.0 | 0.00 | 0.61 | 0.61 | 92 | 1015.4 |
| 20260507030801 | 50 | 45 | 8.0 | 13.0 | 0.02 | 0.61 | 0.61 | 93 | 1016.3 |
| 20260507030259 | 51 | 6 | 5.0 | 7.0 | 0.02 | 0.61 | 0.61 | 93 | 1015.4 |
| 20260507025756 | 51 | 17 | 3.0 | 9.0 | 0.00 | 0.60 | 0.60 | 93 | 1015.3 |
| 20260507025253 | 51 | 55 | 6.0 | 7.0 | 0.02 | 0.60 | 0.60 | 93 | 1014.3 |
| 20260507024751 | 51 | 73 | 4.0 | 8.0 | 0.02 | 0.60 | 0.60 | 94 | 1014.5 |
| 20260507024248 | 51 | 62 | 3.0 | 9.0 | 0.00 | 0.60 | 0.60 | 94 | 1014.7 |
| 20260507023743 | 51 | 65 | 4.0 | 5.0 | 0.02 | 0.60 | 0.60 | 95 | 1015.1 |
| 20260507023240 | 52 | 10 | 4.0 | 5.0 | 0.02 | 0.60 | 0.60 | 95 | 1015.4 |
| 20260507022738 | 52 | 50 | 2.0 | 3.0 | 0.02 | 0.59 | 0.59 | 95 | 1015.0 |
| 20260507022233 | 52 | 331 | 0.0 | 2.0 | 0.02 | 0.59 | 0.59 | 95 | 1015.5 |
| 20260507021730 | 52 | 20 | 0.0 | 2.0 | 0.02 | 0.59 | 0.59 | 95 | 1015.1 |
| 20260507021225 | 52 | 26 | 1.0 | 2.0 | 0.00 | 0.59 | 0.59 | 94 | 1015.2 |
| 20260507020724 | 52 | 246 | 0.0 | 0.0 | 0.00 | 0.59 | 0.59 | 94 | 1014.9 |
| 20260507020220 | 52 | 315 | 0.0 | 1.0 | 0.00 | 0.59 | 0.59 | 94 | 1014.8 |
| 20260507015718 | 52 | 343 | 1.0 | 1.0 | 0.00 | 0.59 | 0.59 | 94 | 1014.6 |
| 20260507015215 | 52 | 246 | 0.0 | 0.0 | 0.00 | 0.59 | 0.59 | 94 | 1014.6 |
| 20260507014712 | 52 | 141 | 0.0 | 0.0 | 0.00 | 0.59 | 0.59 | 93 | 1014.5 |
| 20260507014208 | 52 | 296 | 3.0 | 3.0 | 0.00 | 0.59 | 0.59 | 93 | 1014.5 |
| 20260507013705 | 52 | 17 | 2.0 | 3.0 | 0.00 | 0.59 | 0.59 | 92 | 1014.6 |
| 20260507013202 | 52 | 3 | 2.0 | 4.0 | 0.00 | 0.59 | 0.59 | 92 | 1014.6 |
| 20260507012700 | 53 | 0 | 3.0 | 3.0 | 0.00 | 0.59 | 0.59 | 91 | 1014.5 |
| 20260507012155 | 53 | 22 | 3.0 | 5.0 | 0.00 | 0.59 | 0.59 | 91 | 1014.6 |
| 20260507011653 | 53 | 349 | 3.0 | 4.0 | 0.00 | 0.59 | 0.59 | 91 | 1014.4 |
| 20260507011149 | 53 | 26 | 2.0 | 2.0 | 0.00 | 0.59 | 0.59 | 91 | 1014.4 |
| 20260507010644 | 53 | 343 | 4.0 | 4.0 | 0.00 | 0.59 | 0.59 | 91 | 1014.3 |
| 20260507010140 | 53 | 34 | 3.0 | 3.0 | 0.00 | 0.59 | 0.59 | 92 | 1014.1 |
| 20260507005638 | 53 | 354 | 1.0 | 4.0 | 0.00 | 0.59 | 0.59 | 92 | 1014.3 |
| 20260507005133 | 53 | 336 | 0.0 | 1.0 | 0.00 | 0.59 | 0.59 | 91 | 1014.3 |
| 20260507004630 | 53 | 20 | 2.0 | 4.0 | 0.00 | 0.59 | 0.59 | 91 | 1014.3 |
| 20260507004128 | 53 | 35 | 2.0 | 4.0 | 0.00 | 0.59 | 0.59 | 91 | 1014.3 |
| 20260507003624 | 53 | 346 | 3.0 | 3.0 | 0.00 | 0.59 | 0.59 | 92 | 1014.3 |
| 20260507003120 | 53 | 15 | 3.0 | 4.0 | 0.00 | 0.59 | 0.59 | 91 | 1014.0 |
| 20260507002616 | 53 | 4 | 3.0 | 4.0 | 0.00 | 0.59 | 0.59 | 91 | 1013.6 |
| 20260507002112 | 53 | 28 | 4.0 | 5.0 | 0.00 | 0.59 | 0.59 | 91 | 1013.7 |
| 20260507001609 | 53 | 84 | 2.0 | 5.0 | 0.00 | 0.59 | 0.59 | 91 | 1013.9 |
| 20260507001106 | 53 | 27 | 3.0 | 6.0 | 0.00 | 0.59 | 0.59 | 91 | 1014.2 |
| 20260507000602 | 53 | 63 | 5.0 | 5.0 | 0.00 | 0.59 | 0.59 | 91 | 1014.4 |
| 20260507000058 | 53 | 322 | 2.0 | 4.0 | 0.00 | 0.59 | 0.59 | 91 | 1014.6 |
| 20260506235555 | 53 | 15 | 3.0 | 4.0 | 0.00 | 0.59 | 0.59 | 91 | 1014.8 |
| 20260506235050 | 53 | 359 | 3.0 | 4.0 | 0.00 | 0.59 | 0.59 | 91 | 1014.7 |
| 20260506234548 | 54 | 20 | 5.0 | 5.0 | 0.00 | 0.59 | 0.59 | 91 | 1014.4 |
| 20260506234045 | 54 | 14 | 4.0 | 4.0 | 0.00 | 0.59 | 0.59 | 92 | 1014.3 |
| 20260506233542 | 54 | 33 | 2.0 | 3.0 | 0.00 | 0.59 | 0.59 | 93 | 1014.5 |
| 20260506233039 | 54 | 256 | 0.0 | 0.0 | 0.00 | 0.59 | 0.59 | 93 | 1014.3 |
| 20260506232535 | 54 | 50 | 0.0 | 1.0 | 0.02 | 0.59 | 0.59 | 93 | 1014.3 |
| 20260506232030 | 54 | 345 | 0.0 | 1.0 | 0.02 | 0.59 | 0.59 | 92 | 1014.5 |
| 20260506231528 | 54 | 92 | 0.0 | 2.0 | 0.00 | 0.58 | 0.58 | 92 | 1014.3 |
| 20260506231026 | 55 | 8 | 2.0 | 3.0 | 0.00 | 0.58 | 0.58 | 92 | 1014.4 |
| 20260506230522 | 55 | 25 | 3.0 | 4.0 | 0.00 | 0.58 | 0.58 | 92 | 1014.3 |
| 20260506230020 | 55 | 329 | 2.0 | 2.0 | 0.00 | 0.58 | 0.58 | 92 | 1014.2 |
| 20260506225516 | 55 | 309 | 0.0 | 1.0 | 0.00 | 0.58 | 0.58 | 91 | 1014.2 |
| 20260506225012 | 55 | 314 | 1.0 | 3.0 | 0.00 | 0.58 | 0.58 | 91 | 1014.0 |
| 20260506224509 | 55 | 20 | 2.0 | 3.0 | 0.02 | 0.58 | 0.58 | 91 | 1014.0 |
| 20260506224006 | 55 | 350 | 2.0 | 3.0 | 0.02 | 0.58 | 0.58 | 91 | 1013.7 |
| 20260506223502 | 55 | 345 | 1.0 | 3.0 | 0.00 | 0.58 | 0.58 | 91 | 1013.6 |
| 20260506222959 | 55 | 25 | 1.0 | 2.0 | 0.02 | 0.58 | 0.58 | 91 | 1013.9 |
| 20260506222456 | 55 | 37 | 2.0 | 2.0 | 0.00 | 0.57 | 0.57 | 91 | 1013.7 |
| 20260506221952 | 55 | 327 | 3.0 | 3.0 | 0.05 | 0.57 | 0.57 | 91 | 1013.5 |
| 20260506221449 | 55 | 13 | 0.0 | 2.0 | 0.07 | 0.57 | 0.57 | 90 | 1013.4 |
| 20260506220947 | 55 | 141 | 0.0 | 3.0 | 0.02 | 0.57 | 0.57 | 90 | 1013.6 |
| 20260506220442 | 56 | 38 | 2.0 | 3.0 | 0.00 | 0.56 | 0.56 | 90 | 1013.6 |
| 20260506215934 | 56 | 67 | 1.0 | 2.0 | 0.00 | 0.56 | 0.56 | 90 | 1013.5 |
| 20260506215430 | 55 | 92 | 2.0 | 2.0 | 0.00 | 0.56 | 0.56 | 89 | 1013.9 |
| 20260506214926 | 56 | 13 | 3.0 | 4.0 | 0.02 | 0.56 | 0.56 | 89 | 1013.5 |
| 20260506214423 | 56 | 345 | 0.0 | 2.0 | 0.02 | 0.56 | 0.56 | 89 | 1013.5 |
| 20260506213921 | 56 | 1 | 2.0 | 4.0 | 0.00 | 0.56 | 0.56 | 89 | 1013.5 |
| 20260506213418 | 56 | 349 | 5.0 | 5.0 | 0.00 | 0.56 | 0.56 | 89 | 1013.5 |
| 20260506212916 | 56 | 5 | 2.0 | 5.0 | 0.00 | 0.56 | 0.56 | 90 | 1013.2 |
| 20260506212411 | 57 | 45 | 3.0 | 4.0 | 0.02 | 0.56 | 0.56 | 89 | 1012.9 |
| 20260506211906 | 57 | 17 | 4.0 | 6.0 | 0.02 | 0.56 | 0.56 | 89 | 1013.0 |
| 20260506211403 | 57 | 1 | 2.0 | 2.0 | 0.00 | 0.56 | 0.56 | 89 | 1013.0 |
| 20260506210900 | 57 | 310 | 0.0 | 2.0 | 0.00 | 0.56 | 0.56 | 88 | 1012.7 |
| 20260506210356 | 57 | 2 | 1.0 | 3.0 | 0.00 | 0.56 | 0.56 | 88 | 1012.9 |
| 20260506205854 | 57 | 21 | 5.0 | 5.0 | 0.00 | 0.56 | 0.56 | 88 | 1012.9 |
| 20260506205349 | 58 | 316 | 4.0 | 7.0 | 0.00 | 0.56 | 0.56 | 87 | 1012.7 |
| 20260506204846 | 59 | 301 | 3.0 | 4.0 | 0.00 | 0.56 | 0.56 | 87 | 1012.5 |
| 20260506204344 | 59 | 352 | 2.0 | 4.0 | 0.00 | 0.56 | 0.56 | 85 | 1012.6 |
| 20260506203841 | 59 | 340 | 2.0 | 3.0 | 0.00 | 0.56 | 0.56 | 85 | 1012.4 |
| 20260506203338 | 58 | 327 | 0.0 | 2.0 | 0.00 | 0.56 | 0.56 | 86 | 1012.4 |
| 20260506202835 | 59 | 273 | 2.0 | 3.0 | 0.00 | 0.56 | 0.56 | 84 | 1012.3 |
| 20260506202332 | 59 | 350 | 2.0 | 5.0 | 0.00 | 0.56 | 0.56 | 86 | 1012.2 |
| 20260506201829 | 59 | 256 | 0.0 | 4.0 | 0.00 | 0.56 | 0.56 | 87 | 1012.5 |
| 20260506201326 | 59 | 259 | 2.0 | 7.0 | 0.00 | 0.56 | 0.56 | 87 | 1012.5 |
| 20260506200822 | 58 | 246 | 4.0 | 4.0 | 0.00 | 0.56 | 0.56 | 90 | 1012.2 |
| 20260506200319 | 59 | 345 | 2.0 | 5.0 | 0.00 | 0.56 | 0.56 | 88 | 1012.0 |
| 20260506195815 | 59 | 336 | 5.0 | 5.0 | 0.00 | 0.56 | 0.56 | 88 | 1012.2 |
| 20260506195313 | 59 | 339 | 7.0 | 8.0 | 0.02 | 0.56 | 0.56 | 90 | 1012.1 |
| 20260506194809 | 59 | 322 | 4.0 | 7.0 | 0.02 | 0.56 | 0.56 | 89 | 1012.2 |
| 20260506194306 | 59 | 350 | 2.0 | 4.0 | 0.00 | 0.55 | 0.55 | 89 | 1012.1 |
| 20260506193804 | 59 | 271 | 2.0 | 3.0 | 0.00 | 0.55 | 0.55 | 88 | 1012.2 |
| 20260506193300 | 59 | 357 | 3.0 | 4.0 | 0.00 | 0.55 | 0.55 | 89 | 1012.1 |
| 20260506192756 | 60 | 8 | 2.0 | 6.0 | 0.00 | 0.55 | 0.55 | 87 | 1012.0 |
| 20260506192253 | 61 | 69 | 2.0 | 4.0 | 0.00 | 0.55 | 0.55 | 87 | 1011.7 |
| 20260506191750 | 61 | 316 | 1.0 | 3.0 | 0.00 | 0.55 | 0.55 | 86 | 1011.7 |
| 20260506191246 | 62 | 0 | 3.0 | 5.0 | 0.00 | 0.55 | 0.55 | 85 | 1011.5 |
| 20260506190744 | 62 | 316 | 2.0 | 3.0 | 0.00 | 0.55 | 0.55 | 85 | 1011.7 |
| 20260506190240 | 61 | 309 | 0.0 | 4.0 | 0.00 | 0.55 | 0.55 | 85 | 1011.4 |
| 20260506185737 | 61 | 238 | 3.0 | 8.0 | 0.00 | 0.55 | 0.55 | 85 | 1011.7 |
| 20260506185233 | 61 | 120 | 2.0 | 2.0 | 0.00 | 0.55 | 0.55 | 85 | 1012.0 |
| 20260506184731 | 62 | 267 | 2.0 | 5.0 | 0.00 | 0.55 | 0.55 | 85 | 1011.5 |
| 20260506184228 | 61 | 329 | 4.0 | 5.0 | 0.00 | 0.55 | 0.55 | 83 | 1011.5 |
| 20260506183725 | 61 | 314 | 2.0 | 4.0 | 0.00 | 0.55 | 0.55 | 83 | 1011.8 |
| 20260506183221 | 61 | 8 | 4.0 | 9.0 | 0.00 | 0.55 | 0.55 | 83 | 1011.7 |
| 20260506182718 | 61 | 22 | 3.0 | 5.0 | 0.00 | 0.55 | 0.55 | 85 | 1011.7 |
| 20260506182215 | 61 | 44 | 3.0 | 4.0 | 0.00 | 0.55 | 0.55 | 84 | 1011.8 |
| 20260506181713 | 61 | 166 | 2.0 | 12.0 | 0.00 | 0.55 | 0.55 | 85 | 1011.5 |
| 20260506181210 | 61 | 319 | 1.0 | 6.0 | 0.00 | 0.55 | 0.55 | 85 | 1011.8 |
| 20260506180707 | 61 | 216 | 2.0 | 5.0 | 0.00 | 0.55 | 0.55 | 84 | 1011.5 |
| 20260506180203 | 61 | 151 | 1.0 | 3.0 | 0.00 | 0.55 | 0.55 | 85 | 1011.9 |
| 20260506175659 | 61 | 252 | 3.0 | 5.0 | 0.00 | 0.55 | 0.55 | 84 | 1012.0 |
| 20260506175156 | 61 | 212 | 4.0 | 4.0 | 0.00 | 0.55 | 0.55 | 85 | 1011.9 |
| 20260506174654 | 61 | 305 | 3.0 | 9.0 | 0.00 | 0.55 | 0.55 | 85 | 1011.9 |
| 20260506174151 | 61 | 0 | 1.0 | 5.0 | 0.00 | 0.55 | 0.55 | 87 | 1011.8 |
| 20260506173649 | 61 | 349 | 3.0 | 4.0 | 0.00 | 0.55 | 0.55 | 86 | 1012.2 |
| 20260506173145 | 62 | 351 | 4.0 | 7.0 | 0.00 | 0.55 | 0.55 | 85 | 1012.1 |
| 20260506172642 | 62 | 239 | 3.0 | 5.0 | 0.00 | 0.55 | 0.55 | 83 | 1012.0 |
| 20260506172139 | 62 | 356 | 3.0 | 6.0 | 0.00 | 0.55 | 0.55 | 83 | 1012.0 |
| 20260506171631 | 61 | 35 | 3.0 | 4.0 | 0.00 | 0.55 | 0.55 | 86 | 1011.9 |
| 20260506171128 | 61 | 31 | 2.0 | 5.0 | 0.00 | 0.55 | 0.55 | 86 | 1012.0 |
| 20260506170625 | 61 | 303 | 4.0 | 8.0 | 0.00 | 0.55 | 0.55 | 90 | 1011.9 |
| 20260506170117 | 61 | 309 | 0.0 | 4.0 | 0.02 | 0.55 | 0.55 | 89 | 1012.1 |
| 20260506165616 | 61 | 281 | 4.0 | 12.0 | 0.02 | 0.55 | 0.55 | 91 | 1011.9 |
| 20260506165111 | 61 | 55 | 1.0 | 3.0 | 0.00 | 0.55 | 0.55 | 92 | 1011.9 |
| 20260506164609 | 61 | 89 | 1.0 | 2.0 | 0.02 | 0.55 | 0.55 | 92 | 1011.8 |
| 20260506164106 | 61 | 151 | 2.0 | 2.0 | 0.05 | 0.55 | 0.55 | 91 | 1011.8 |
| 20260506163602 | 61 | 210 | 0.0 | 4.0 | 0.02 | 0.54 | 0.54 | 89 | 1011.9 |
| 20260506163057 | 61 | 168 | 0.0 | 3.0 | 0.00 | 0.54 | 0.54 | 90 | 1011.8 |
| 20260506162553 | 61 | 230 | 0.0 | 5.0 | 0.00 | 0.54 | 0.54 | 89 | 1011.7 |
| 20260506162045 | 61 | 133 | 0.0 | 5.0 | 0.00 | 0.54 | 0.54 | 91 | 1011.5 |
| 20260506161543 | 61 | 75 | 1.0 | 5.0 | 0.02 | 0.54 | 0.54 | 91 | 1011.4 |
| 20260506161039 | 60 | 285 | 2.0 | 11.0 | 0.02 | 0.54 | 0.54 | 91 | 1011.5 |
| 20260506160537 | 60 | 73 | 1.0 | 3.0 | 0.07 | 0.54 | 0.54 | 91 | 1011.7 |
| 20260506160034 | 61 | 103 | 0.0 | 2.0 | 0.05 | 0.53 | 0.53 | 91 | 1011.4 |
| 20260506155533 | 61 | 252 | 2.0 | 9.0 | 0.02 | 0.52 | 0.52 | 90 | 1011.3 |
| 20260506153709 | 60 | 339 | 2.0 | 3.0 | 0.00 | 0.52 | 0.52 | 92 | 1011.1 |
| 20260506153207 | 60 | 237 | 3.0 | 5.0 | 0.02 | 0.52 | 0.52 | 92 | 1011.3 |
| 20260506152704 | 60 | 37 | 2.0 | 2.0 | 0.02 | 0.52 | 0.52 | 92 | 1011.3 |
| 20260506152201 | 60 | 134 | 3.0 | 3.0 | 0.02 | 0.52 | 0.52 | 92 | 1011.0 |
| 20260506151700 | 60 | 352 | 0.0 | 3.0 | 0.02 | 0.52 | 0.52 | 92 | 1010.9 |
| 20260506151156 | 61 | 163 | 5.0 | 6.0 | 0.02 | 0.51 | 0.51 | 92 | 1011.1 |
| 20260506150653 | 60 | 348 | 2.0 | 3.0 | 0.02 | 0.51 | 0.51 | 93 | 1010.8 |
| 20260506150150 | 60 | 223 | 3.0 | 3.0 | 0.02 | 0.51 | 0.51 | 93 | 1010.9 |
| 20260506145647 | 60 | 145 | 1.0 | 2.0 | 0.02 | 0.50 | 0.50 | 94 | 1011.0 |
| 20260506145143 | 60 | 116 | 0.0 | 3.0 | 0.02 | 0.50 | 0.50 | 94 | 1010.7 |
| 20260506144641 | 60 | 99 | 1.0 | 3.0 | 0.05 | 0.50 | 0.50 | 94 | 1010.9 |
| 20260506144138 | 60 | 282 | 2.0 | 2.0 | 0.05 | 0.50 | 0.50 | 94 | 1010.7 |
| 20260506143635 | 59 | 37 | 0.0 | 1.0 | 0.02 | 0.49 | 0.49 | 94 | 1011.1 |
| 20260506143133 | 59 | 162 | 0.0 | 1.0 | 0.02 | 0.49 | 0.49 | 94 | 1010.9 |
| 20260506142632 | 59 | 214 | 2.0 | 4.0 | 0.02 | 0.49 | 0.49 | 94 | 1010.8 |
| 20260506142129 | 59 | 124 | 0.0 | 2.0 | 0.00 | 0.48 | 0.48 | 94 | 1010.6 |
| 20260506141626 | 59 | 220 | 1.0 | 2.0 | 0.00 | 0.48 | 0.48 | 94 | 1010.4 |
| 20260506141125 | 59 | 180 | 2.0 | 2.0 | 0.02 | 0.48 | 0.48 | 94 | 1010.5 |
| 20260506140622 | 59 | 269 | 0.0 | 2.0 | 0.02 | 0.48 | 0.48 | 93 | 1010.9 |
| 20260506140119 | 59 | 147 | 0.0 | 3.0 | 0.00 | 0.48 | 0.48 | 93 | 1010.7 |
| 20260506135616 | 59 | 226 | 0.0 | 2.0 | 0.00 | 0.48 | 0.48 | 93 | 1010.7 |
| 20260506135112 | 59 | 219 | 2.0 | 4.0 | 0.00 | 0.48 | 0.48 | 93 | 1010.8 |
| 20260506134609 | 59 | 203 | 3.0 | 5.0 | 0.00 | 0.48 | 0.48 | 93 | 1010.8 |
| 20260506134104 | 59 | 105 | 3.0 | 9.0 | 0.00 | 0.48 | 0.48 | 94 | 1010.7 |
| 20260506133602 | 59 | 128 | 2.0 | 3.0 | 0.00 | 0.48 | 0.48 | 94 | 1010.8 |
| 20260506133059 | 59 | 173 | 0.0 | 3.0 | 0.00 | 0.48 | 0.48 | 94 | 1010.7 |
| 20260506132556 | 58 | 186 | 0.0 | 2.0 | 0.02 | 0.48 | 0.48 | 94 | 1010.6 |
| 20260506132053 | 58 | 244 | 1.0 | 2.0 | 0.05 | 0.48 | 0.48 | 94 | 1010.8 |
| 20260506131550 | 58 | 215 | 0.0 | 3.0 | 0.05 | 0.48 | 0.48 | 94 | 1010.7 |
| 20260506131047 | 58 | 85 | 3.0 | 4.0 | 0.07 | 0.47 | 0.47 | 94 | 1010.9 |
| 20260506130543 | 58 | 214 | 1.0 | 2.0 | 0.09 | 0.47 | 0.47 | 94 | 1010.8 |
| 20260506130041 | 58 | 129 | 2.0 | 3.0 | 0.09 | 0.46 | 0.46 | 94 | 1010.7 |
| 20260506125539 | 58 | 135 | 0.0 | 4.0 | 0.07 | 0.45 | 0.45 | 94 | 1010.7 |
| 20260506125037 | 58 | 130 | 3.0 | 4.0 | 0.07 | 0.45 | 0.45 | 94 | 1010.9 |
| 20260506124534 | 58 | 137 | 2.0 | 4.0 | 0.12 | 0.44 | 0.44 | 94 | 1010.7 |
| 20260506124032 | 58 | 218 | 3.0 | 6.0 | 0.09 | 0.43 | 0.43 | 94 | 1010.7 |
| 20260506123529 | 58 | 156 | 0.0 | 5.0 | 0.02 | 0.42 | 0.42 | 94 | 1010.6 |
| 20260506123028 | 58 | 215 | 1.0 | 4.0 | 0.02 | 0.42 | 0.42 | 95 | 1010.5 |
| 20260506122524 | 57 | 108 | 2.0 | 5.0 | 0.02 | 0.42 | 0.42 | 95 | 1010.5 |
| 20260506122022 | 57 | 55 | 1.0 | 3.0 | 0.02 | 0.41 | 0.41 | 96 | 1010.4 |
| 20260506121520 | 57 | 71 | 0.0 | 2.0 | 0.07 | 0.41 | 0.41 | 96 | 1010.5 |
| 20260506121015 | 57 | 154 | 0.0 | 2.0 | 0.07 | 0.41 | 0.41 | 96 | 1010.6 |
| 20260506120514 | 57 | 165 | 2.0 | 4.0 | 0.07 | 0.40 | 0.40 | 96 | 1010.5 |
| 20260506120011 | 57 | 116 | 5.0 | 5.0 | 0.09 | 0.39 | 0.39 | 96 | 1010.5 |
| 20260506115509 | 56 | 122 | 2.0 | 4.0 | 0.14 | 0.39 | 0.39 | 96 | 1010.5 |
| 20260506115007 | 56 | 53 | 0.0 | 2.0 | 0.21 | 0.38 | 0.38 | 96 | 1010.4 |
| 20260506114504 | 56 | 94 | 1.0 | 2.0 | 0.17 | 0.36 | 0.36 | 96 | 1010.4 |
| 20260506114003 | 56 | 160 | 0.0 | 0.0 | 0.09 | 0.34 | 0.34 | 96 | 1010.5 |
| 20260506113500 | 56 | 57 | 1.0 | 2.0 | 0.02 | 0.33 | 0.33 | 96 | 1010.4 |
| 20260506112956 | 56 | 249 | 0.0 | 2.0 | 0.02 | 0.32 | 0.32 | 96 | 1010.2 |
| 20260506112453 | 56 | 231 | 1.0 | 2.0 | 0.05 | 0.32 | 0.32 | 96 | 1010.1 |
| 20260506111950 | 55 | 230 | 0.0 | 1.0 | 0.05 | 0.32 | 0.32 | 96 | 1010.2 |
| 20260506111449 | 55 | 25 | 1.0 | 1.0 | 0.07 | 0.32 | 0.32 | 96 | 1010.2 |
| 20260506110945 | 56 | 339 | 0.0 | 1.0 | 0.14 | 0.31 | 0.31 | 96 | 1010.1 |
| 20260506110443 | 55 | 268 | 2.0 | 2.0 | 0.14 | 0.30 | 0.30 | 96 | 1010.3 |
| 20260506105939 | 56 | 232 | 2.0 | 3.0 | 0.19 | 0.29 | 0.29 | 96 | 1010.6 |
| 20260506105436 | 55 | 224 | 3.0 | 4.0 | 0.24 | 0.28 | 0.28 | 95 | 1010.6 |
| 20260506104933 | 55 | 230 | 0.0 | 0.0 | 0.17 | 0.25 | 0.25 | 95 | 1010.6 |
| 20260506104431 | 55 | 76 | 0.0 | 2.0 | 0.12 | 0.23 | 0.23 | 95 | 1010.7 |
| 20260506103930 | 55 | 6 | 1.0 | 2.0 | 0.12 | 0.22 | 0.22 | 95 | 1011.0 |
| 20260506103427 | 55 | 338 | 1.0 | 2.0 | 0.09 | 0.21 | 0.21 | 95 | 1010.8 |
| 20260506102924 | 55 | 135 | 0.0 | 1.0 | 0.09 | 0.20 | 0.20 | 95 | 1010.7 |
| 20260506102421 | 55 | 222 | 3.0 | 3.0 | 0.14 | 0.19 | 0.19 | 95 | 1010.9 |
| 20260506101918 | 55 | 124 | 0.0 | 2.0 | 0.28 | 0.18 | 0.18 | 94 | 1010.7 |
| 20260506101414 | 55 | 71 | 2.0 | 3.0 | 0.26 | 0.17 | 0.17 | 94 | 1011.0 |
| 20260506100912 | 55 | 4 | 2.0 | 2.0 | 0.17 | 0.13 | 0.13 | 94 | 1011.2 |
| 20260506100410 | 55 | 312 | 1.0 | 2.0 | 0.21 | 0.12 | 0.12 | 94 | 1010.9 |
| 20260506095908 | 55 | 129 | 0.0 | 1.0 | 0.28 | 0.11 | 0.11 | 93 | 1010.8 |
| 20260506095406 | 55 | 85 | 1.0 | 3.0 | 0.21 | 0.08 | 0.08 | 93 | 1011.1 |
| 20260506094902 | 56 | 269 | 0.0 | 2.0 | 0.07 | 0.05 | 0.05 | 92 | 1011.3 |
| 20260506094401 | 56 | 252 | 2.0 | 2.0 | 0.07 | 0.04 | 0.04 | 92 | 1011.1 |
| 20260506093858 | 56 | 133 | 1.0 | 2.0 | 0.02 | 0.03 | 0.03 | 92 | 1010.9 |
| 20260506093356 | 56 | 135 | 0.0 | 0.0 | 0.02 | 0.03 | 0.03 | 91 | 1011.0 |
| 20260506092853 | 56 | 225 | 1.0 | 3.0 | 0.05 | 0.03 | 0.03 | 91 | 1011.1 |
| 20260506092351 | 56 | 348 | 0.0 | 2.0 | 0.05 | 0.02 | 0.02 | 90 | 1010.7 |
| 20260506091847 | 57 | 1 | 2.0 | 2.0 | 0.05 | 0.02 | 0.02 | 89 | 1010.7 |
| 20260506091346 | 57 | 83 | 1.0 | 2.0 | 0.05 | 0.02 | 0.02 | 88 | 1010.8 |
| 20260506090842 | 57 | 112 | 1.0 | 2.0 | 0.02 | 0.01 | 0.01 | 87 | 1010.7 |
| 20260506090340 | 57 | 97 | 0.0 | 2.0 | 0.00 | 0.01 | 0.01 | 86 | 1010.6 |
| 20260506085837 | 57 | 37 | 0.0 | 2.0 | 0.00 | 0.01 | 0.01 | 84 | 1010.5 |
| 20260506085333 | 58 | 337 | 1.0 | 2.0 | 0.00 | 0.01 | 0.01 | 83 | 1010.3 |
| 20260506084830 | 58 | 111 | 0.0 | 3.0 | 0.02 | 0.01 | 0.01 | 80 | 1010.4 |
| 20260506084326 | 59 | 224 | 1.0 | 2.0 | 0.02 | 0.01 | 0.01 | 78 | 1010.3 |
| 20260506083823 | 60 | 9 | 1.0 | 3.0 | 0.02 | 0.00 | 0.00 | 75 | 1010.6 |
| 20260506083320 | 60 | 102 | 0.0 | 1.0 | 0.02 | 0.00 | 0.00 | 72 | 1010.6 |
| 20260506082818 | 60 | 123 | 1.0 | 2.0 | 0.00 | 0.00 | 0.00 | 69 | 1010.9 |
| 20260506082314 | 57 | 50 | 1.0 | 4.0 | 0.00 | 0.00 | 0.00 | 77 | 1010.7 |
| 20260506081810 | 56 | 94 | 3.0 | 6.0 | 0.00 | 0.00 | 0.00 | 84 | 1010.6 |
| 20260506081309 | 56 | 311 | 2.0 | 2.0 | 0.00 | 0.00 | 0.00 | 84 | 1010.5 |
| 20260506080806 | 56 | 89 | 2.0 | 4.0 | 0.00 | 0.00 | 0.00 | 84 | 1010.3 |
| 20260506080302 | 56 | 91 | 3.0 | 3.0 | 0.00 | 0.00 | 0.00 | 84 | 1010.4 |
| 20260506073246 | 56 | 129 | 0.0 | 2.0 | 0.00 | 0.00 | 0.00 | 83 | 1010.3 |
| 20260506072743 | 56 | 303 | 1.0 | 2.0 | 0.00 | 0.00 | 0.00 | 83 | 1010.0 |
| 20260506072241 | 56 | 116 | 0.0 | 2.0 | 0.00 | 0.00 | 0.00 | 83 | 1010.1 |
| 20260506071738 | 56 | 283 | 1.0 | 1.0 | 0.00 | 0.00 | 0.00 | 83 | 1010.4 |
| 20260506071236 | 56 | 119 | 0.0 | 2.0 | 0.00 | 0.00 | 0.00 | 83 | 1010.2 |
| 20260506070733 | 56 | 135 | 0.0 | 2.0 | 0.00 | 0.00 | 0.00 | 82 | 1010.2 |
| 20260506070230 | 56 | 88 | 2.0 | 3.0 | 0.00 | 0.00 | 0.00 | 83 | 1010.2 |
| 20260506062207 | 57 | 129 | 0.0 | 2.0 | 0.00 | 0.00 | 0.00 | 81 | 1010.5 |
| 20260506061703 | 57 | 261 | 1.0 | 2.0 | 0.00 | 0.00 | 0.00 | 81 | 1010.7 |
| 20260506061200 | 57 | 1 | 0.0 | 1.0 | 0.00 | 0.00 | 0.00 | 81 | 1010.9 |
| 20260506060659 | 57 | 21 | 2.0 | 2.0 | 0.00 | 0.00 | 0.00 | 80 | 1011.1 |
| 20260506060155 | 57 | 60 | 0.0 | 1.0 | 0.00 | 0.00 | 0.00 | 79 | 1011.0 |